TimeEST,TemperatureF,Dew PointF,Humidity,Sea Level PressureIn,VisibilityMPH,Wind Direction,Wind SpeedMPH,Gust SpeedMPH,PrecipitationIn,Events,Conditions,WindDirDegrees,DateUTC
12:12 AM,51.8,50.0,94,30.23,8.0,Calm,Calm,-,N/A,,Scattered Clouds,0,2012-12-04 05:12:00
12:53 AM,52.0,48.9,89,30.27,10.0,Calm,Calm,-,N/A,,Partly Cloudy,0,2012-12-04 05:53:00
1:53 AM,55.9,53.1,90,30.26,8.0,Calm,Calm,-,N/A,,Clear,0,2012-12-04 06:53:00
2:25 AM,55.4,53.6,94,30.22,1.5,Calm,Calm,-,N/A,,Clear,0,2012-12-04 07:25:00
2:38 AM,55.4,53.6,94,30.22,3.0,Calm,Calm,-,N/A,,Clear,0,2012-12-04 07:38:00
2:53 AM,55.0,53.1,93,30.26,7.0,Calm,Calm,-,N/A,,Clear,0,2012-12-04 07:53:00
3:47 AM,55.4,53.6,94,30.22,1.8,ENE,3.5,-,N/A,,Clear,60,2012-12-04 08:47:00
3:53 AM,54.0,53.1,97,30.26,1.2,Calm,Calm,-,N/A,,Clear,0,2012-12-04 08:53:00
4:13 AM,53.6,51.8,94,30.22,3.0,Calm,Calm,-,N/A,,Clear,0,2012-12-04 09:13:00
4:53 AM,52.0,51.1,97,30.25,9.0,Calm,Calm,-,N/A,,Clear,0,2012-12-04 09:53:00
5:53 AM,53.6,51.8,94,30.22,9.0,NE,3.5,-,N/A,,Clear,50,2012-12-04 10:53:00
6:53 AM,55.0,53.1,93,30.28,8.0,NE,3.5,-,N/A,,Clear,50,2012-12-04 11:53:00
7:53 AM,55.9,55.0,97,30.30,0.2,ENE,3.5,-,N/A,Fog,Fog,70,2012-12-04 12:53:00
8:00 AM,55.4,55.4,100,30.26,0.2,ENE,3.5,-,N/A,Fog,Fog,70,2012-12-04 13:00:00
8:42 AM,57.2,55.4,94,30.27,0.2,Calm,Calm,-,N/A,Fog,Fog,0,2012-12-04 13:42:00
8:53 AM,57.9,57.0,97,30.32,0.5,East,3.5,-,N/A,Fog,Fog,80,2012-12-04 13:53:00
8:58 AM,57.2,57.2,100,30.28,1.0,Calm,Calm,-,N/A,,Mostly Cloudy,0,2012-12-04 13:58:00
9:06 AM,59.0,57.2,94,30.28,3.0,ENE,3.5,-,N/A,,Mostly Cloudy,70,2012-12-04 14:06:00
9:15 AM,59.0,57.2,94,30.28,3.0,East,3.5,-,N/A,,Scattered Clouds,80,2012-12-04 14:15:00
9:53 AM,63.0,62.1,97,30.33,10.0,East,3.5,-,N/A,,Mostly Cloudy,80,2012-12-04 14:53:00
10:53 AM,70.0,64.0,81,30.33,10.0,SE,6.9,-,N/A,,Scattered Clouds,140,2012-12-04 15:53:00
11:53 AM,73.9,63.0,68,30.31,10.0,SE,11.5,-,N/A,,Mostly Cloudy,130,2012-12-04 16:53:00
12:53 PM,73.9,62.1,66,30.30,10.0,SSE,13.8,-,N/A,,Overcast,150,2012-12-04 17:53:00
1:53 PM,73.0,57.9,59,30.28,10.0,SSE,9.2,-,N/A,,Mostly Cloudy,150,2012-12-04 18:53:00
2:53 PM,75.9,55.9,50,30.26,10.0,South,10.4,16.1,N/A,,Scattered Clouds,170,2012-12-04 19:53:00
3:53 PM,73.9,55.9,53,30.25,10.0,South,8.1,-,N/A,,Scattered Clouds,190,2012-12-04 20:53:00
4:53 PM,71.6,57.2,60,30.25,10.0,South,6.9,-,N/A,,Scattered Clouds,180,2012-12-04 21:53:00
5:53 PM,66.9,60.1,79,30.25,10.0,Calm,Calm,-,N/A,,Scattered Clouds,0,2012-12-04 22:53:00
6:53 PM,63.0,59.0,87,30.25,10.0,Calm,Calm,-,N/A,,Scattered Clouds,0,2012-12-04 23:53:00
7:53 PM,62.1,59.0,90,30.25,10.0,Calm,Calm,-,N/A,,Scattered Clouds,0,2012-12-05 00:53:00
8:53 PM,60.1,57.0,90,30.25,10.0,Calm,Calm,-,N/A,,Clear,0,2012-12-05 01:53:00
9:53 PM,59.0,55.9,90,30.25,8.0,Calm,Calm,-,N/A,,Clear,0,2012-12-05 02:53:00
10:53 PM,55.9,54.0,93,30.24,6.0,Calm,Calm,-,N/A,,Clear,0,2012-12-05 03:53:00
11:36 PM,55.4,53.6,94,30.20,8.0,Calm,Calm,-,N/A,,Partly Cloudy,0,2012-12-05 04:36:00
11:53 PM,55.0,52.0,89,30.23,9.0,Calm,Calm,-,N/A,,Clear,0,2012-12-05 04:53:00